Location: St Paul
(33.9360°N, 83.4200°W)
Time: 03:19:40
(UTC-04:00)

Resurs 01 Rocket - Pass Details

Date: 06 October 2017
Orbit: 634 x 645 km, 98.1° (Epoch: 18 October)

Event Time Altitude Azimuth Distance (km) Brightness Sun altitude
Exits shadow 21:44:47 24° 324° (NW) 1,306 3.6 -32.5°
Drops below altitude 10° 21:46:43 10° 335° (NNW) 2,024 4.6 -32.8°
Sets 21:48:59 0° 341° (NNW) 2,935 5.5 -33.3°
